User: anonymous   Login
Location: Cutler
(25.6150°N, 80.3110°W)
Time: 18:17:36
(UTC-04:00)
Language:

Cosmos 2360 Rocket - Orbit

View from above orbital plane
View from above orbital plane
View from above satellite
View from above satellite

Ground track
Ground track

The orbit data is extracted from the following two-line orbital elements,

1 25407U 98045B   15149.49723906 -.00000253  00000-0 -10440-3 0  9998
2 25407 071.0098 176.8199 0010150 269.3808 090.6152 14.15713789870070
Epoch (UTC): 29 May 2015 11:56:01
Eccentricity: 0.0010150
inclination: 71.0098°
perigee height: 832 km
apogee height: 847 km
right ascension of ascending node: 176.8199°
argument of perigee: 269.3808°
revolutions per day: 14.15713789
mean anomaly at epoch: 90.6152°
orbit number at epoch: 87007

The dashed part of the orbit path shows where the satellite is in the earth's shadow,  

DLR